Location: Frydek-Mistek
(49.6830°N, 18.3330°E)
Time: 11:53:14
(UTC+02:00)

Courier 1B Rocket - All Passes

Search period start: 30 August 2015 00:00
Search period end: 09 September 2015 00:00
Orbit: 921 x 1202 km, 28.2° (Epoch: 29 August)

Date Brightness Start Highest point End Pass type
(mag) Time Alt. Az. Time Alt. Az. Time Alt. Az.
30 Aug - 22:50:27 10° SSW 22:53:15 13° S 22:56:08 10° SSE visible
31 Aug - 21:50:27 10° SSW 21:52:37 12° S 21:54:53 10° SSE visible
31 Aug - 23:42:42 10° SSW 23:44:44 11° S 23:46:42 10° S night (unlit)
01 Sep - 22:41:44 10° SSW 22:44:05 12° S 22:46:26 10° SSE visible
02 Sep - 21:41:20 10° SSW 21:43:27 11° S 21:45:39 10° SSE visible
03 Sep - 20:41:36 10° S 20:42:52 11° S 20:44:14 10° SSE visible
03 Sep - 22:34:17 10° SSW 22:34:56 10° S 22:35:31 10° S visible
04 Sep - 21:32:55 10° SSW 21:34:20 11° S 21:35:44 10° S visible
05 Sep - 20:32:34 10° S 20:33:46 10° S 20:34:58 10° SSE visible
